Regional Weather Roundup
Issued by NWS

Home | Current Version | Previous Version | Graphics & Text | Print | Product List | Glossary On
Versions: 1 2 3 4 5 6 7 8 9 10 11 12 13 14 15 16 17 18 19 20 21 22 23 24 25 26 27 28 29 30 31 32 33 34 35 36 37 38 39 40 41 42 43 44 45 46 47 48 49 50
000
ASUS43 KFSD 201410
RWRSD

WEATHER ROUNDUP FOR SOUTH DAKOTA
NATIONAL WEATHER SERVICE SIOUX FALLS SD
800 AM CST MON FEB 20 2017

NOTE: "FAIR" INDICATES FEW OR NO CLOUDS BELOW 12,000 FEET WITH NO
SIGNIFICANT WEATHER AND/OR OBSTRUCTIONS TO VISIBILITY.


SDZ001>005-009-010-012>017-201500-
NORTHWEST AND NORTH CENTRAL SOUTH DAKOTA

CITY           SKY/WX    TMP DP  RH WIND       PRES   REMARKS
BUFFALO          N/A     38  33  82 W14       29.70R
FAITH            N/A     42  39  89 NW16      29.73R
MOBRIDGE       CLOUDY    40  34  79 NW22G29   29.62R
$$

SDZ012>016-024>037-041>051-057-063-072>074-201500-
SOUTHWEST AND SOUTH CENTRAL SOUTH DAKOTA

CITY           SKY/WX    TMP DP  RH WIND       PRES   REMARKS
RAPID CTY ARPT CLOUDY    41  36  82 N7        29.77R
PIERRE         CLOUDY    44  37  76 NW26G35   29.63R
CUSTER         CLOUDY    38  27  64 W15G22    29.79R
ELLSWORTH AFB  CLOUDY    42  38  84 NW8       29.76S
PHILIP         CLOUDY    44  41  89 NW15      29.72R
PINE RIDGE     LGT RAIN  42  38  85 W6        29.81R
SPEARFISH      FAIR      41  34  75 W16       29.79S
WINNER         FAIR      49  40  71 NW18      29.65R
$$

SDZ004>011-016>023-039-040-201500-
NORTHEAST SOUTH DAKOTA

CITY           SKY/WX    TMP DP  RH WIND       PRES   REMARKS
ABERDEEN       RAIN      50  47  89 S17       29.60F FOG
WATERTOWN      CLOUDY    50  49  96 S13       29.65S FOG
BROOKINGS      CLOUDY    52  51  97 S12G20    29.67F FOG
SISSETON         N/A     52  51  97 SE13      29.64R
$$

SDZ017-020-022-023-036>040-048>070-201500-
SOUTHEAST SOUTH DAKOTA

CITY           SKY/WX    TMP DP  RH WIND       PRES   REMARKS
SIOUX FALLS    LGT RAIN  55  54  96 S14       29.69F FOG
HURON          CLOUDY    52  51  97 S13       29.60F
CHAMBERLAIN    CLOUDY    51  47  84 W9        29.61R
MITCHELL       CLOUDY    52  51  97 SE12      29.62F FOG
YANKTON        CLOUDY    52  48  87 NE9       29.65F
$$

ABBREVIATIONS USED IN REMARKS
   TC - TEMPERATURE IN CELSIUS
  WCI - WIND CHILL INDEX
   HX - HEAT INDEX
  VSB - VISIBILITY





USA.gov is the U.S. government's official web portal to all federal, state and local government web resources and services.